Regional Weather Roundup
Issued by NWS

Home | Current Version | Previous Version | Text Only | Print | Product List | Glossary Off
Versions: 1 2 3 4 5 6 7 8 9 10 11 12 13 14 15 16 17 18 19 20 21 22 23 24 25 26 27 28 29 30 31 32 33 34 35 36 37 38 39 40 41 42 43 44 45 46 47 48 49 50

000
ASUS43 KMKX 161200
RWRWI

WISCONSIN REGIONAL WEATHER ROUNDUP
NATIONAL WEATHER SERVICE MILWAUKEE/SULLIVAN WI
700 AM CDT TUE SEP 16 2014

NOTE: "FAIR" INDICATES FEW OR NO CLOUDS BELOW 12,000 FEET WITH NO
SIGNIFICANT WEATHER AND/OR OBSTRUCTIONS TO VISIBILITY.

WIZ001-002-006>008-014>016-023>028-161300-
NORTHWEST WISCONSIN

CITY           SKY/WX    TMP DP  RH WIND       PRES   REMARKS
SUPERIOR ARPT  CLEAR     38  36  92 SW8       30.11S WCI  32
ASHLAND        PTCLDY    44  37  76 SW10      30.12S
6HR MIN TEMP:  42; 6HR MAX TEMP:  45;

HAYWARD        PTCLDY    33  31  92 CALM      30.16S
6HR MIN TEMP:  32; 6HR MAX TEMP:  36;

SIREN          CLEAR     43  38  82 SW6       30.16S
RICE LAKE      FOG       35  34  97 CALM      30.19S VSB 3/4
6HR MIN TEMP:  35; 6HR MAX TEMP:  38;

LADYSMITH      CLEAR     35  34  96 CALM      30.19S
EAU CLAIRE     NOT AVBL
MENOMONIE      SUNNY     37  37  97 E3        30.20S
NEW RICHMOND   CLEAR     40  40  97 SW3       30.19S
OSCEOLA        CLEAR     37  37 100 CALM      30.21S
$$

WIZ003>005-009-010-017-018-161300-
NORTH CENTRAL WISCONSIN

CITY           SKY/WX    TMP DP  RH WIND       PRES   REMARKS
WOODRUFF       CLEAR     37  34  91 CALM      30.14S
RHINELANDER    CLEAR     32  31  96 W6        30.16S WCI  26
6HR MIN TEMP:  31; 6HR MAX TEMP:  35;

EAGLE RIVER    CLEAR     32  32 100 CALM      30.14S
LAND O LAKES   CLEAR     29  28  99 CALM      30.13F
PHILLIPS       PTCLDY    35  33  94 CALM      30.16R
6HR MIN TEMP:  33; 6HR MAX TEMP:  38;

TOMAHAWK       CLEAR     30  29  97 CALM      30.17S
MEDFORD        CLEAR     36  35  96 CALM      30.18S
MERRILL        MOCLDY    31  31  99 CALM      30.18S
$$

WIZ029-030-035-036-043>047-161300-
CENTRAL WISCONSIN

CITY           SKY/WX    TMP DP  RH WIND       PRES   REMARKS
WAUSAU         CLEAR     38  36  92 CALM      30.18R
6HR MIN TEMP:  37; 6HR MAX TEMP:  41;

MOSINEE        CLEAR     37  36  93 W6        30.19S WCI  33
MARSHFIELD     CLEAR     37  35  92 W5        30.19S WCI  33
6HR MIN TEMP:  37; 6HR MAX TEMP:  41;

STEVENS POINT  CLEAR     31  30  96 CALM      30.20R
WAUPACA        CLEAR     41  40  95 SW3       30.20R
WAUTOMA        NOT AVBL
WISC RAPIDS    CLEAR     35  35 100 CALM      30.22R
6HR MIN TEMP:  35; 6HR MAX TEMP:  39;

CAMP DOUGLAS   FOG       32  32 100 CALM      30.20F VSB 1/2
$$

WIZ011>013-019>022-031-037>040-048>050-161300-
NORTHEAST WISCONSIN

CITY           SKY/WX    TMP DP  RH WIND       PRES   REMARKS
ANTIGO         CLEAR     32  32  99 CALM      30.17S
STURGEON BAY   CLEAR     43  37  81 SW3       30.16S
6HR MIN TEMP:  43; 6HR MAX TEMP:  52;

GREEN BAY      CLEAR     39  38  96 W5        30.18S
6HR MIN TEMP:  39; 6HR MAX TEMP:  44;

MANITOWOC      NOT AVBL
APPLETON       NOT AVBL
CLINTONVILLE   CLEAR     37  36  93 CALM      30.19R
OSHKOSH        CLEAR     42  39  89 W6        30.19S
6HR MIN TEMP:  41; 6HR MAX TEMP:  48;

$$

WIZ032>034-041-042-053>061-161300-
SOUTHWEST WISCONSIN

CITY           SKY/WX    TMP DP  RH WIND       PRES   REMARKS
LA CROSSE      FOG       45  43  93 S6        30.22S VSB 3/4
6HR MIN TEMP:  44; 6HR MAX TEMP:  47;

SPARTA         FOG       33  33 100 CALM      30.23S VSB 3/4
VIROQUA        FAIR      38  38 100 CALM      30.21S
BOSCOBEL       FOG       43  42  97 SW3       30.24R VSB 1/4
6HR MIN TEMP:  43; 6HR MAX TEMP:  46;

PRAIRIE DU CHI DRZL/FOG  43  42  96 CALM      30.24R VSB 1/4
PLATTEVILLE      N/A     38  38  97 CALM      30.23S VSB 1/4
$$

WIZ056-057-062-063-064-067-068-161300-
SOUTH CENTRAL WISCONSIN

CITY           SKY/WX    TMP DP  RH WIND       PRES   REMARKS
BARABOO/DELLS  CLEAR     36  35  97 CALM      30.21S FOG
LONE ROCK      HAZE      43  38  82 CALM      30.23R VSB 1/4
WATERTOWN      CLEAR     36  35  99 CALM      30.20S
MADISON        CLEAR     38  37  97 CALM      30.22S
6HR MIN TEMP:  37; 6HR MAX TEMP:  43;

MIDDLETON        N/A     38  38 100 CALM      30.22S
MONROE         CLEAR     45  39  81 NW5       30.21S
JANESVILLE     CLEAR     39  37  93 CALM      30.21R
$$

WIZ051-052-058>065-066-070>072-161300-
SOUTHEAST WISCONSIN

CITY           SKY/WX    TMP DP  RH WIND       PRES   REMARKS
MILWAUKEE      CLEAR     45  41  86 CALM      30.21R
6HR MIN TEMP:  44; 6HR MAX TEMP:  50;

WAUKESHA       CLEAR     37  37 100 CALM      30.21R
MILWAUKEE/TIMM CLEAR     41  39  93 CALM      30.21S
RACINE         CLEAR     45  41  86 NW7       30.22R
6HR MIN TEMP:  44; 6HR MAX TEMP:  48;

BURLINGTON     CLEAR     35  35 100 CALM      30.21R FOG
KENOSHA        CLEAR     41  40  96 W5        30.21R
6HR MIN TEMP:  40; 6HR MAX TEMP:  46;

FOND DU LAC    CLEAR     37  35  92 S3        30.20S
6HR MIN TEMP:  37; 6HR MAX TEMP:  46;

SHEBOYGAN      CLEAR     39  37  92 W5        30.19S
6HR MIN TEMP:  37; 6HR MAX TEMP:  49;

WEST BEND      CLEAR     39  37  93 CALM      30.20R
JUNEAU         FOG       38  38  99 CALM      30.22R VSB 3/4
$$

LSZ147-162-161300-
LAKE SUPERIOR

STATION/POSITION TIME  TEMP    WIND        PRES    WAVE
                       AIR SEA DIR/SP/G            HT/PER
                 (UTC) (F)     (DEG/KT/KT) (MB)    (FT/S)
W MID LAKE BUOY  1050   51 47  230/ 16/ 19 1017.4F   3/ 4
DEVILS ISLAND    1100   51     240/ 23/ 26 1018.3F
PORT WING        1140   46     200/  5/  7 1019.6S
SAXON HARBOR     1100   48     190/  9/ 12 1019.6
$$

LMZ867-665-643>646-161300-
LAKE MICHIGAN

STATION/POSITION TIME  TEMP    WIND        PRES    WAVE
                       AIR SEA DIR/SP/G            HT/PER
                 (UTC) (F)     (DEG/KT/KT) (MB)    (FT/S)
N MID LAKE BUOY  1050   54 59  270/ 12/ 14 1020.5R   1/ 3
NORTHPORT PIER   1100   47     280/  3/  6 1020.7S
KEWAUNEE LAKESHO 1100   42     300/  5/  6 1020.6R
SHEBOYGAN LAKESH 1100   46 48  290/ 10/ 11 1022.5S
PORT WASHINGTON  1140   45     300/  6/  9 1023.0R
ATWATER BUOY     1100   51     310/  8/ 12 1023.2R
MILWAUKEE LAKESH 1100   47     300/  7/  8   N/A
S MID LAKE BUOY  1050   58 64  340/ 10/ 12 1021.7R
KENOSHA   LAKESH 1100   47     300/  7/  9 1022.4R
$$

TC  - TEMPERATURE IN CELSIUS
VSB - VISIBILITY IN STATUTE MILES
WCI - WIND CHILL INDEX
HX  - HEAT INDEX



USA.gov is the U.S. government's official web portal to all federal, state and local government web resources and services.